Location: Unspecified
(0.0000°N, 0.0000°E)
Time: 18:27:58
(UTC+01:00)

GP-B - Visible Passes

Search period start: 17 November 2017 00:00
Search period end: 27 November 2017 00:00
Orbit: 632 x 635 km, 89.8° (Epoch: 17 November)

Date Brightness Start Highest point End Pass type
(mag) Time Alt. Az. Time Alt. Az. Time Alt. Az.
17 Nov 3.1 05:19:34 10° S 05:23:56 57° W 05:25:55 30° NNW visible
18 Nov 5.9 04:06:33 10° ESE 04:08:37 13° E 04:09:31 13° ENE visible
18 Nov 4.2 05:42:04 10° SSW 05:45:39 24° W 05:46:55 21° WNW visible
19 Nov 4.8 04:26:28 10° SSE 04:30:21 30° E 04:30:35 30° E visible
19 Nov 5.1 06:06:47 10° WSW 06:07:22 10° W 06:07:57 10° W visible
20 Nov 3.3 04:47:39 10° S 04:51:43 68° SE 04:51:43 68° SE visible
21 Nov 3.7 05:09:33 10° SSW 05:12:54 40° SW 05:12:54 40° SW visible
22 Nov 6.1 03:55:48 10° SE 03:56:43 13° ESE 03:56:43 13° ESE visible
22 Nov 4.8 05:32:18 10° SW 05:34:08 17° WSW 05:34:08 17° WSW visible
23 Nov 5.3 04:16:09 10° SSE 04:18:00 22° SE 04:18:00 22° SE visible
24 Nov 4.9 04:37:31 10° S 04:39:19 24° S 04:39:19 24° S visible
25 Nov 5.2 04:59:35 10° SSW 05:00:40 16° SSW 05:00:40 16° SSW visible
